Flag for India Weather past 2 weeks in Jalandhar, Punjab, India

Now
64 °F

Haze.


Feels Like: 64 °F
Forecast: 44 / 69 °F
Wind: 6 mph from West

Location: Amritsar Airport

Current Time: Jan 31, 2015 at 4:45:24 PM

Latest Report: Jan 31, 2015 at 4:00 PM


Visibility: 2 mi

Pressure: 30.01 "Hg

Humidity: 43%

Dew point: 41 °F

Location of JalandharLocation

Historic Weather in Jalandhar — Graph

°F

Jalandhar temperature yesterday

Maximum temperature yesterday: 64 °F (at 2:30 PM)
Minimum temperature yesterday: 39 °F (at 5:00 AM)
Average temperature yesterday: 51 °F

Past Weeks' High & Low Weather Summary

 TemperatureHumidityPressure
High68 °F (Jan 17, 2:00 PM)100% (Jan 16, 10:00 PM)30.24 "Hg (Jan 16, 10:00 PM)
Low34 °F (Jan 28, 8:00 AM)37% (Jan 31, 3:30 PM)30.01 "Hg (Jan 28, 3:30 PM)
Average52 °F83%30.11 "Hg
* Reported Jan 16 3:30 PM — Jan 31 3:30 PM, Jalandhar, Weather by CustomWeather, © 2014

Note: Actual official high and low records may vary slightly from our data, if they occured in-between our weather recording intervals... More about our weather records

Advertising

Jalandhar weather history for previous 24 hours

 ConditionsComfort  
Time TempWeatherWind HumidityBarometerVisibility
3:30 PM
Jan 31
66 °FHaze.8 mph37%30.01 "Hg2 mi
3:00 PM66 °FHaze.8 mph43%30.04 "Hg2 mi
2:30 PM64 °FHaze.8 mph43%30.04 "Hg2 mi
2:00 PM64 °FHaze.8 mph43%30.04 "Hg2 mi
1:30 PM64 °FScattered clouds.6 mph46%30.07 "Hg2 mi
1:00 PM63 °FScattered clouds.6 mph49%30.07 "Hg2 mi
12:30 PM63 °FScattered clouds.3 mph45%30.09 "Hg2 mi
12:00 PM59 °FScattered clouds.2 mph55%30.09 "Hg2 mi
11:30 AM59 °FScattered clouds.1 mph55%30.12 "Hg2 mi
11:00 AM57 °FScattered clouds.5 mph55%30.12 "Hg2 mi
10:00 AM55 °FScattered clouds.3 mph59%30.09 "Hg1 mi
9:30 AM52 °FHaze.6 mph72%30.09 "Hg1 mi
9:00 AM48 °FFog.No wind82%30.09 "Hg1 mi
8:30 AM45 °FFog.No wind81%30.09 "Hg1 mi
8:00 AM43 °FFog.No wind87%30.09 "Hg1 mi
7:30 AM41 °FFog.No wind93%30.07 "Hg1 mi
7:00 AM43 °FFog.No wind87%30.07 "Hg1 mi
6:30 AM43 °FFog.No wind87%30.07 "Hg1 mi
6:00 AM41 °FFog.2 mph87%30.07 "Hg1 mi
5:30 AM43 °FFog.No wind87%30.07 "Hg1 mi
5:00 AM45 °FFog.No wind81%30.07 "Hg1 mi
4:30 AM43 °FFog.No wind87%30.07 "Hg1 mi
4:00 AM45 °FFog.No wind81%30.07 "Hg1 mi
3:30 AM45 °FFog.No wind81%30.09 "Hg1 mi
2:30 AM46 °FFog.No wind76%30.09 "Hg1 mi
2:00 AM45 °FFog.No wind81%30.09 "Hg1 mi
1:30 AM46 °FFog.No wind82%30.09 "Hg1 mi
1:00 AM46 °FFog.No wind82%30.12 "Hg1 mi
12:30 AM46 °FFog.No wind82%30.12 "Hg1 mi
12:00 AM45 °FFog.No wind87%30.12 "Hg1 mi
11:30 PM
Jan 30
46 °FFog.No wind82%30.12 "Hg1 mi
11:00 PM46 °FFog.No wind82%30.12 "Hg1 mi
10:30 PM46 °FFog.No wind82%30.12 "Hg1 mi
10:00 PM48 °FFog.No wind82%30.12 "Hg2 mi
9:30 PM48 °FFog.No wind76%30.12 "Hg2 mi
9:00 PM50 °FFog.No wind76%30.12 "Hg2 mi
8:30 PM52 °FFog.No wind72%30.12 "Hg2 mi
8:00 PM52 °FFog.No wind72%30.12 "Hg2 mi
7:30 PM52 °FHaze.No wind72%30.12 "Hg2 mi
7:00 PM54 °FHaze.No wind67%30.12 "Hg2 mi
6:30 PM55 °FHaze.2 mph67%30.09 "Hg2 mi
6:00 PM57 °FHaze.No wind67%30.09 "Hg2 mi
5:30 PM63 °FHaze.2 mph56%30.09 "Hg2 mi
5:00 PM63 °FHaze.6 mph52%30.09 "Hg2 mi
4:30 PM64 °FHaze.9 mph46%30.12 "Hg2 mi
4:00 PM64 °FHaze.9 mph43%30.12 "Hg2 mi
Weather by CustomWeather, © 2014

See weather overviewHow to use our weather pages